Location: Newark
(52.1031°N, 9.3600°E)
Time: 05:14:28
(UTC+00:00)

Envisat - Pass Details

Date: 27 October 2019
Orbit: 764 x 766 km, 98.1° (Epoch: 11 November)

Event Time Altitude Azimuth Distance (km) Brightness Sun altitude
Rises 05:11:19 0° 24° (NNE) 3,245 6.5 -9.2°
Reaches altitude 10° 05:14:14 10° 41° (NE) 2,313 5.9 -8.8°
Maximum altitude 05:18:00 21° 89° (E) 1,692 6.0 -8.2°
Drops below altitude 10° 05:21:45 10° 137° (SE) 2,299 6.4 -7.7°
Sets 05:24:37 0° 154° (SSE) 3,220 6.8 -7.2°
